Starlink 31434

operational
NORAD ID: 59215 Int'l Des: 2024-046 Owner: SPXS Country: US Constellation: starlink
LEOCIRCULAR

Starlink 31434について

説明を読み込み中...

リアルタイム位置

3D地球を読み込み中...

次回通過

高度履歴

Altitude vs Time

uPlot chart will show altitude changes over time

軌道要素

1 59215U 24046Q 26035.04805627 .00000185 00000-0 18374-4 0 9997
2 59215 53.1597 311.2584 0001331 111.6551 248.4592 15.30191535107898
Epoch: Feb 4, 2026 • Age: 26 hours

現在のステータス

高度 494.4 km
速度 7.62 km/s
衛星直下点 -52.94°S, 20.75°E
打ち上げ日 Mar 11, 2024
運用期間 1.9 years
タイプ internet

技術仕様

分類 Payload
質量 730.00 kg
乾燥質量 700.00 kg
総質量 730.00 kg
長さ 0.30 m
直径 4.10 m
スパン 29.00 m
形状 Box + pan
製造者 SPXS
バスタイプ Starlink V2M
フェーズステータス In Orbit
所有者/国 SPXS/US

大規模コンステレーション

Loading constellations...